Wetbulb
75.48 72.35 69.70 68.03 67.29 66.99 66.90 66.32 66.10 64.84 65.50 65.68 65.75 65.00 66.16 65.45 65.14 64.92 63.63 63.32 62.61 61.22
72.33 68.50 67.53 66.97 67.53 66.70 66.40 64.11 63.51 63.43 61.94 63.27 63.54 63.75 64.24 62.70 62.37 62.63 62.14 61.03 60.75 59.48
68.92 67.76 67.22 68.41 67.97 67.60 66.85 66.00 62.75 61.90 60.45 60.11 61.11 61.29 61.64 60.82 60.49 59.12 58.47 58.73 58.81 58.43
67.38 67.51 68.16 68.09 67.74 66.34 65.92 63.03 61.18 57.81 58.47 58.96 58.92 58.62 57.73 57.88 57.45 57.85 58.05 58.15 56.91 55.99
65.94 67.31 66.79 65.39 64.99 64.62 63.61 60.41 56.73 56.70 57.22 57.60 57.08 57.37 57.45 57.17 57.44 56.89 55.54 55.19 54.48 54.07
65.11 64.38 62.81 62.04 62.35 60.74 59.49 57.75 57.95 58.18 56.10 56.38 57.12 57.33 57.38 56.69 55.77 55.80 54.39 54.37 53.78 53.41
60.75 59.63 59.85 60.58 60.50 58.85 58.73 58.53 57.85 57.58 56.71 56.28 56.10 55.94 55.46 54.42 55.06 55.15 53.74 54.05 52.97 51.53
58.31 58.77 59.58 58.18 57.56 57.54 56.33 56.51 56.28 55.55 54.83 54.25 53.78 52.73 54.27 54.54 54.29 54.04 53.19 52.91 52.03 49.48
56.97 57.50 55.27 55.79 54.75 54.38 54.20 53.74 53.25 52.74 51.72 50.94 49.70 44.45 46.67 52.88 53.50 52.73 51.73 50.91 50.04 49.56
53.58 52.96 51.42 51.10 50.29 50.94 52.08 51.78 50.96 50.67 50.73 49.84 48.52 42.48 44.08 47.72 51.93 50.75 49.52 48.92 48.37 47.30
48.21 47.21 47.09 46.80 47.50 47.23 49.31 50.02 49.67 49.63 49.51 48.29 44.63 40.73 42.27 45.78 50.31 49.00 47.16 46.18 46.52 45.74
47.65 46.91 45.27 44.52 45.12 47.93 48.47 48.41 48.92 49.36 48.60 47.03 45.38 40.49 41.03 46.16 47.92 46.47 45.77 43.89 40.71 41.94
47.89 45.66 44.99 45.82 47.24 48.26 48.44 47.84 48.35 47.75 47.20 44.00 44.77 38.52 39.87 44.34 46.50 45.74 44.36 44.68 43.23 34.46
45.86 45.02 46.01 47.04 47.16 47.18 47.10 46.95 46.80 46.22 46.13 45.39 43.81 42.13 38.96 39.34 45.95 44.83 43.51 42.40 41.20 39.31
MSLP
1005.72 1007.35 1008.90 1009.94 1010.88 1011.78 1012.81 1013.87 1014.69 1015.21 1015.44 1015.12 1016.25 1016.86 1016.64 1016.89 1017.09 1017.24 1017.10 1017.14 1017.18 1016.44
1006.27 1007.74 1009.00 1010.03 1010.94 1012.04 1012.97 1013.81 1014.65 1015.31 1016.07 1016.11 1016.39 1017.02 1017.40 1017.52 1017.78 1017.76 1017.72 1017.64 1017.68 1017.26
1006.51 1008.03 1009.11 1009.98 1010.93 1011.93 1012.96 1013.75 1014.57 1015.39 1016.03 1016.06 1016.95 1017.13 1017.91 1018.07 1018.29 1018.38 1018.12 1017.93 1018.20 1018.11
1006.96 1008.22 1009.04 1010.00 1011.04 1012.28 1013.29 1014.38 1015.02 1016.00 1016.11 1016.36 1017.66 1018.42 1018.50 1018.58 1018.71 1018.74 1018.55 1018.47 1018.78 1018.75
1007.26 1008.22 1009.40 1010.71 1011.74 1012.83 1013.77 1014.90 1015.40 1016.07 1016.71 1016.92 1018.36 1018.70 1018.93 1018.58 1018.88 1018.80 1018.91 1019.26 1019.10 1018.90
1007.60 1008.66 1010.17 1011.36 1012.40 1013.47 1014.54 1015.37 1016.03 1016.68 1017.22 1017.61 1018.52 1018.92 1019.16 1018.92 1019.20 1019.26 1019.54 1019.46 1019.32 1019.35
1008.34 1009.56 1011.08 1012.22 1012.93 1013.86 1014.75 1015.54 1016.37 1016.90 1017.54 1018.42 1018.84 1019.15 1019.30 1019.68 1019.59 1019.48 1019.83 1019.84 1020.03 1020.23
1009.00 1010.36 1011.63 1012.65 1013.61 1014.56 1015.62 1016.34 1017.04 1017.52 1018.53 1019.09 1019.40 1019.84 1020.07 1019.94 1019.76 1019.76 1020.07 1020.38 1020.45 1021.17
1009.46 1010.99 1012.64 1013.63 1014.48 1015.41 1016.37 1017.17 1017.82 1018.43 1018.96 1019.82 1020.58 1021.32 1020.90 1020.36 1020.32 1020.42 1020.71 1020.82 1020.92 1020.92
1010.46 1012.14 1013.62 1014.62 1015.54 1016.30 1017.04 1017.88 1018.64 1019.20 1019.75 1020.50 1021.53 1022.12 1021.86 1021.22 1021.01 1021.26 1021.63 1021.62 1021.58 1021.16
1011.55 1013.18 1014.45 1015.37 1016.16 1017.00 1017.76 1018.40 1019.08 1019.82 1020.41 1021.44 1022.74 1022.95 1022.53 1021.96 1021.82 1022.04 1022.18 1022.27 1022.18 1022.26
1012.16 1013.48 1014.88 1015.73 1016.49 1017.40 1018.07 1019.01 1019.62 1020.43 1021.14 1022.14 1023.21 1023.43 1023.04 1022.14 1022.17 1022.30 1022.35 1022.83 1023.72 1023.27
1013.06 1014.00 1015.25 1016.32 1017.07 1018.10 1018.85 1019.51 1020.21 1021.22 1022.18 1023.01 1023.45 1023.92 1023.33 1022.51 1022.20 1022.08 1022.21 1022.68 1023.30 1024.91
1014.10 1014.87 1016.10 1017.14 1018.00 1018.79 1019.48 1020.42 1021.23 1022.04 1022.73 1023.40 1023.68 1024.22 1024.05 1023.52 1022.77 1022.41 1022.48 1022.76 1023.26 1024.28
Wind_Speed
16 11 9 11 12 9 10 11 11 9 7 11 6 4 4 4 3 4 5 6 6 4
16 15 14 16 14 12 15 12 11 13 8 10 8 4 3 4 4 4 5 5 5 5
16 17 17 16 18 17 16 16 14 13 10 11 8 7 5 5 5 5 4 4 5 6
17 17 16 17 16 17 16 15 15 12 12 13 9 7 6 6 5 6 6 6 6 5
18 17 16 14 16 17 16 15 13 12 14 13 10 8 6 6 6 7 7 7 5 8
17 17 16 16 17 18 17 16 14 14 13 12 9 8 7 7 7 8 8 6 8 9
18 19 17 18 19 18 17 16 14 13 13 11 9 8 8 7 7 9 7 8 8 9
19 19 18 19 18 17 15 15 14 15 12 10 8 6 8 8 9 8 8 7 7 10
22 21 19 19 17 17 17 15 15 13 13 11 9 10 12 5 8 9 7 7 7 7
21 22 20 18 17 16 17 16 15 14 14 13 12 8 8 6 9 9 9 9 9 9
22 20 18 17 18 15 15 15 14 14 14 13 9 5 4 6 10 10 11 11 11 10
21 21 18 17 16 14 16 15 14 13 14 13 11 6 7 4 8 9 10 12 13 12
20 20 19 16 16 16 15 15 13 15 14 13 11 10 11 6 6 7 7 8 10 17
19 20 18 17 16 16 16 16 15 15 13 13 12 12 15 18 8 7 7 7 7 9
Wind_Direction
156 143 132 127 128 125 125 127 124 103 97 85 109 89 102 114 83 89 76 48 22 345
128 127 133 125 122 132 130 123 122 109 100 89 98 118 126 106 115 87 55 62 17 329
129 128 130 134 136 140 135 132 126 118 121 109 110 112 140 134 94 80 59 45 26 358
129 133 136 135 132 135 133 127 122 122 121 118 118 106 98 102 105 95 82 60 43 37
129 129 127 128 127 135 127 128 119 124 120 114 125 124 127 114 102 85 75 66 51 32
125 121 118 119 124 125 125 119 118 121 116 113 118 123 116 100 96 94 82 66 51 38
122 117 119 126 126 122 124 119 117 111 106 113 113 110 103 111 104 91 79 70 54 41
116 115 120 121 117 116 114 115 110 106 107 102 105 87 116 102 97 94 82 67 75 51
116 117 116 119 113 116 113 110 107 105 100 95 84 32 15 78 90 84 72 68 57 68
115 120 117 117 112 112 109 106 104 100 98 91 89 39 29 43 87 85 74 55 37 29
115 115 110 109 106 105 108 106 102 99 94 93 85 45 46 92 95 85 68 48 39 34
118 114 111 105 107 107 107 107 103 102 101 100 103 27 350 124 98 86 78 76 43 27
113 108 105 108 107 110 108 107 103 99 97 97 96 37 15 9 90 77 93 75 77 57
103 103 105 109 110 112 107 109 109 106 99 92 81 59 33 11 64 66 69 54 54 44